NKS2050 KFLL-MKJP

Flight info

Callsign NKS2050
Flight time 1h 24m
Altitude 37000
Route REGAE2 URSUS UP406 BILSI DCT ALTIB UL795 BOPOL UR625 NEFTU UP525 EMABU A301 SAVEM KEYNO3
Aircraft A320/M-SDE3FGHIRWY/LB1

Departure

Time 2026-05-05 19:56
Airport Fort Lauderdale Hollywood International Airport (KFLL)

Arrival

Time 2026-05-05 21:21
Airport Norman Manley International Airport (MKJP)
Time Latitude Longitude Altitude Speed Heading
2026-05-05 19:27 26.06934 -80.14607 16 ft 0 kts 90°
2026-05-05 19:43 26.06934 -80.14614 16 ft 2 kts 90°
2026-05-05 19:43 26.06934 -80.14636 16 ft 3 kts 92°
2026-05-05 19:44 26.06935 -80.14659 17 ft 3 kts 92°
2026-05-05 19:44 26.06936 -80.14681 18 ft 3 kts 94°
2026-05-05 19:44 26.06939 -80.14702 17 ft 3 kts 119°
2026-05-05 19:44 26.06951 -80.14717 17 ft 3 kts 138°
2026-05-05 19:45 26.06961 -80.14727 16 ft 3 kts 138°
2026-05-05 19:45 26.06969 -80.14735 17 ft 1 kts 138°
2026-05-05 19:48 26.06968 -80.14734 17 ft 1 kts 138°
2026-05-05 19:48 26.06959 -80.14725 16 ft 4 kts 138°
2026-05-05 19:49 26.06921 -80.14688 18 ft 11 kts 139°
2026-05-05 19:49 26.06847 -80.14621 17 ft 16 kts 134°
2026-05-05 19:49 26.06770 -80.14620 15 ft 16 kts 257°
2026-05-05 19:49 26.06766 -80.14734 15 ft 15 kts 270°
2026-05-05 19:50 26.06767 -80.14872 15 ft 16 kts 270°
2026-05-05 19:50 26.06749 -80.14917 17 ft 3 kts 212°
2026-05-05 19:50 26.06714 -80.14931 17 ft 7 kts 215°
2026-05-05 19:50 26.06693 -80.15000 19 ft 12 kts 271°
2026-05-05 19:51 26.06695 -80.15097 20 ft 13 kts 271°
2026-05-05 19:51 26.06695 -80.15200 21 ft 14 kts 270°
2026-05-05 19:51 26.06696 -80.15327 16 ft 19 kts 270°
2026-05-05 19:51 26.06696 -80.15460 16 ft 16 kts 270°
2026-05-05 19:52 26.06697 -80.15579 16 ft 15 kts 271°
2026-05-05 19:52 26.06697 -80.15660 16 ft 4 kts 269°
2026-05-05 19:52 26.06697 -80.15671 16 ft 3 kts 269°
2026-05-05 19:52 26.06698 -80.15702 16 ft 6 kts 271°
2026-05-05 19:53 26.06699 -80.15766 16 ft 10 kts 270°
2026-05-05 19:53 26.06677 -80.15817 17 ft 3 kts 210°
2026-05-05 19:53 26.06675 -80.15818 16 ft 0 kts 205°
2026-05-05 19:54 26.06664 -80.15822 17 ft 3 kts 194°
2026-05-05 19:55 26.06632 -80.15824 17 ft 6 kts 179°
2026-05-05 19:55 26.06592 -80.15803 18 ft 7 kts 121°
2026-05-05 19:55 26.06588 -80.15690 21 ft 39 kts 90°
2026-05-05 19:55 26.06586 -80.15062 19 ft 120 kts 90°
2026-05-05 19:56 26.06578 -80.13911 178 ft 167 kts 90°
2026-05-05 19:56 26.06576 -80.12563 894 ft 179 kts 90°
2026-05-05 19:56 26.06593 -80.11178 1711 ft 181 kts 88°
2026-05-05 19:56 26.06609 -80.09751 2251 ft 187 kts 89°
2026-05-05 19:57 26.06627 -80.08237 2630 ft 203 kts 89°
2026-05-05 19:57 26.06646 -80.06628 3002 ft 219 kts 89°
2026-05-05 19:57 26.06664 -80.04849 3356 ft 241 kts 90°
2026-05-05 19:57 26.06674 -80.02902 3835 ft 262 kts 90°
2026-05-05 19:58 26.06674 -80.00801 4471 ft 279 kts 91°
2026-05-05 19:58 26.06673 -79.98614 5369 ft 285 kts 90°
2026-05-05 19:58 26.06678 -79.96397 6339 ft 288 kts 89°
2026-05-05 19:58 26.06690 -79.94155 7206 ft 291 kts 89°
2026-05-05 19:59 26.06696 -79.91901 7934 ft 298 kts 90°
2026-05-05 19:59 26.06679 -79.89566 8665 ft 304 kts 91°
2026-05-05 19:59 26.06637 -79.87196 9414 ft 308 kts 91°
2026-05-05 19:59 26.06583 -79.84793 10143 ft 312 kts 91°
2026-05-05 20:00 26.06480 -79.82388 10731 ft 320 kts 97°
2026-05-05 20:00 26.06122 -79.79874 11038 ft 338 kts 100°
2026-05-05 20:00 26.05702 -79.77216 11292 ft 357 kts 101°
2026-05-05 20:00 26.05255 -79.74484 11839 ft 364 kts 101°
2026-05-05 20:01 26.04802 -79.71723 12428 ft 368 kts 101°
2026-05-05 20:01 26.04344 -79.68894 13047 ft 373 kts 100°
2026-05-05 20:01 26.03888 -79.66033 13675 ft 377 kts 100°
2026-05-05 20:01 26.03309 -79.63193 14189 ft 381 kts 105°
2026-05-05 20:02 26.02614 -79.60312 14711 ft 385 kts 105°
2026-05-05 20:02 26.01920 -79.57410 15250 ft 389 kts 104°
2026-05-05 20:02 26.01122 -79.54529 15752 ft 392 kts 113°
2026-05-05 20:02 25.99814 -79.51951 16252 ft 395 kts 128°
2026-05-05 20:03 25.97931 -79.49720 16754 ft 395 kts 143°
2026-05-05 20:03 25.95630 -79.48052 17251 ft 395 kts 157°
2026-05-05 20:03 25.93036 -79.47038 17745 ft 394 kts 171°
2026-05-05 20:03 25.90371 -79.46456 18242 ft 397 kts 173°
2026-05-05 20:04 25.87623 -79.45997 18673 ft 397 kts 181°
2026-05-05 20:04 25.84870 -79.46096 19079 ft 395 kts 193°
2026-05-05 20:04 25.82202 -79.46775 19523 ft 391 kts 204°
2026-05-05 20:04 25.79751 -79.47960 19967 ft 387 kts 214°
2026-05-05 20:05 25.77469 -79.49560 20433 ft 387 kts 219°
2026-05-05 20:05 25.75225 -79.51190 20900 ft 389 kts 218°
2026-05-05 20:05 25.72951 -79.52835 21349 ft 391 kts 218°
2026-05-05 20:05 25.70652 -79.54496 21799 ft 393 kts 219°
2026-05-05 20:06 25.68379 -79.56141 22229 ft 395 kts 220°
2026-05-05 20:06 25.66197 -79.57975 22655 ft 394 kts 224°
2026-05-05 20:06 25.64037 -79.59870 23094 ft 396 kts 224°
2026-05-05 20:06 25.61864 -79.61775 23529 ft 398 kts 224°
2026-05-05 20:07 25.59712 -79.63659 23888 ft 400 kts 224°
2026-05-05 20:07 25.57519 -79.65579 24216 ft 402 kts 224°
2026-05-05 20:07 25.55312 -79.67512 24547 ft 405 kts 224°
2026-05-05 20:07 25.53094 -79.69454 24887 ft 407 kts 224°
2026-05-05 20:08 25.50862 -79.71407 25218 ft 410 kts 224°
2026-05-05 20:08 25.48613 -79.73372 25560 ft 412 kts 224°
2026-05-05 20:08 25.46382 -79.75316 25895 ft 414 kts 224°
2026-05-05 20:08 25.44106 -79.77300 26233 ft 417 kts 224°
2026-05-05 20:09 25.41817 -79.79295 26569 ft 419 kts 224°
2026-05-05 20:09 25.39392 -79.81140 26884 ft 428 kts 214°
2026-05-05 20:09 25.36652 -79.82429 27183 ft 439 kts 202°
2026-05-05 20:09 25.33628 -79.83069 27494 ft 451 kts 189°
2026-05-05 20:10 25.30453 -79.82971 27792 ft 462 kts 176°
2026-05-05 20:10 25.27287 -79.82132 28071 ft 470 kts 167°
2026-05-05 20:10 25.24135 -79.81111 28402 ft 472 kts 167°
2026-05-05 20:10 25.21006 -79.80101 28724 ft 474 kts 167°
2026-05-05 20:11 25.17817 -79.79078 29068 ft 477 kts 167°
2026-05-05 20:11 25.14613 -79.78060 29397 ft 480 kts 168°
2026-05-05 20:11 25.11391 -79.77042 29730 ft 482 kts 168°
2026-05-05 20:11 25.08182 -79.76023 30063 ft 485 kts 167°
2026-05-05 20:12 25.04918 -79.74982 30330 ft 488 kts 167°
2026-05-05 20:12 25.01648 -79.73937 30587 ft 491 kts 167°
2026-05-05 20:12 24.98388 -79.72893 30835 ft 494 kts 167°
2026-05-05 20:12 24.95067 -79.71831 31076 ft 497 kts 167°
2026-05-05 20:13 24.91743 -79.70756 31417 ft 498 kts 165°
2026-05-05 20:13 24.88502 -79.69329 31778 ft 502 kts 156°
2026-05-05 20:13 24.85466 -79.67413 32102 ft 504 kts 148°
2026-05-05 20:13 24.82543 -79.65342 32441 ft 505 kts 148°
2026-05-05 20:14 24.79573 -79.63243 32790 ft 506 kts 148°
2026-05-05 20:14 24.76600 -79.61149 33140 ft 507 kts 148°
2026-05-05 20:14 24.73627 -79.59059 33493 ft 508 kts 148°
2026-05-05 20:14 24.70634 -79.56957 33848 ft 509 kts 148°
2026-05-05 20:15 24.67688 -79.54890 34163 ft 509 kts 148°
2026-05-05 20:15 24.64692 -79.52789 34467 ft 509 kts 148°
2026-05-05 20:15 24.61706 -79.50692 34802 ft 508 kts 148°
2026-05-05 20:15 24.58720 -79.48595 35140 ft 507 kts 148°
2026-05-05 20:16 24.55748 -79.46507 35454 ft 507 kts 148°
2026-05-05 20:16 24.52808 -79.44445 35753 ft 506 kts 148°
2026-05-05 20:16 24.49829 -79.42357 36058 ft 506 kts 148°
2026-05-05 20:16 24.46845 -79.40269 36315 ft 507 kts 148°
2026-05-05 20:17 24.43859 -79.38180 36577 ft 507 kts 148°
2026-05-05 20:17 24.40912 -79.36119 36851 ft 507 kts 148°
2026-05-05 20:17 24.37923 -79.34030 36997 ft 510 kts 148°
2026-05-05 20:18 24.31910 -79.29833 37032 ft 518 kts 148°
2026-05-05 20:18 24.25878 -79.25585 37033 ft 519 kts 147°
2026-05-05 20:19 24.19811 -79.21209 37032 ft 519 kts 147°
2026-05-05 20:19 24.13804 -79.16858 37033 ft 519 kts 147°
2026-05-05 20:20 24.07751 -79.12516 37030 ft 520 kts 147°
2026-05-05 20:20 24.01621 -79.08393 37032 ft 518 kts 156°
2026-05-05 20:21 23.94827 -79.05939 37018 ft 511 kts 173°
2026-05-05 20:21 23.87860 -79.04586 37034 ft 511 kts 173°
2026-05-05 20:22 23.80846 -79.03195 37030 ft 511 kts 173°
2026-05-05 20:22 23.73838 -79.01797 37031 ft 511 kts 173°
2026-05-05 20:23 23.66828 -79.00408 37012 ft 511 kts 173°
2026-05-05 20:23 23.59874 -78.99037 37032 ft 511 kts 173°
2026-05-05 20:24 23.52866 -78.97651 37040 ft 511 kts 173°
2026-05-05 20:24 23.45857 -78.96267 37040 ft 511 kts 173°
2026-05-05 20:25 23.38901 -78.94898 37041 ft 510 kts 173°
2026-05-05 20:25 23.31952 -78.93538 37024 ft 510 kts 173°
2026-05-05 20:26 23.25001 -78.92175 37037 ft 510 kts 171°
2026-05-05 20:26 23.18267 -78.89610 37038 ft 515 kts 153°
2026-05-05 20:27 23.12400 -78.85227 37033 ft 515 kts 142°
2026-05-05 20:27 23.06702 -78.80487 37038 ft 515 kts 142°
2026-05-05 20:28 23.01026 -78.75792 37023 ft 515 kts 142°
2026-05-05 20:28 22.95323 -78.71077 37041 ft 514 kts 142°
2026-05-05 20:29 22.89673 -78.66403 37056 ft 514 kts 142°
2026-05-05 20:29 22.83981 -78.61695 37044 ft 514 kts 142°
2026-05-05 20:30 22.78272 -78.56986 37045 ft 514 kts 142°
2026-05-05 20:30 22.72617 -78.52304 37044 ft 514 kts 142°
2026-05-05 20:31 22.66925 -78.47556 37033 ft 514 kts 142°
2026-05-05 20:31 22.61291 -78.42853 37045 ft 514 kts 142°
2026-05-05 20:32 22.55618 -78.38143 37048 ft 513 kts 142°
2026-05-05 20:32 22.49932 -78.33438 37046 ft 513 kts 142°
2026-05-05 20:33 22.44300 -78.28747 37046 ft 513 kts 142°
2026-05-05 20:33 22.38658 -78.24025 37045 ft 513 kts 142°
2026-05-05 20:34 22.32982 -78.19292 37024 ft 512 kts 143°
2026-05-05 20:34 22.27380 -78.14637 37050 ft 511 kts 143°
2026-05-05 20:35 22.21732 -78.09950 37052 ft 510 kts 143°
2026-05-05 20:35 22.16134 -78.05307 37049 ft 510 kts 143°
2026-05-05 20:36 22.10509 -78.00647 37050 ft 510 kts 143°
2026-05-05 20:36 22.04885 -77.95990 37051 ft 509 kts 143°
2026-05-05 20:37 21.99279 -77.91348 37039 ft 509 kts 143°
2026-05-05 20:37 21.94584 -77.87474 37046 ft 509 kts 143°
2026-05-05 20:38 21.88962 -77.82840 37046 ft 508 kts 143°
2026-05-05 20:38 21.83332 -77.78220 37045 ft 508 kts 143°
2026-05-05 20:39 21.77723 -77.73640 37045 ft 507 kts 143°
2026-05-05 20:39 21.72121 -77.69073 37043 ft 507 kts 143°
2026-05-05 20:40 21.66489 -77.64482 37040 ft 507 kts 143°
2026-05-05 20:40 21.60869 -77.59895 37050 ft 505 kts 142°
2026-05-05 20:41 21.55271 -77.55321 37059 ft 504 kts 143°
2026-05-05 20:41 21.49706 -77.50795 37045 ft 504 kts 143°
2026-05-05 20:42 21.44053 -77.46287 37043 ft 504 kts 148°
2026-05-05 20:42 21.37732 -77.43232 37041 ft 500 kts 167°
2026-05-05 20:43 21.30873 -77.42380 37014 ft 492 kts 185°
2026-05-05 20:43 21.24070 -77.42602 37039 ft 491 kts 185°
2026-05-05 20:44 21.17227 -77.42810 37043 ft 490 kts 185°
2026-05-05 20:44 21.10452 -77.43014 37043 ft 490 kts 185°
2026-05-05 20:45 21.00224 -77.43316 37043 ft 489 kts 185°
2026-05-05 20:45 20.93419 -77.43529 37027 ft 489 kts 185°
2026-05-05 20:46 20.86625 -77.43742 37026 ft 488 kts 185°
2026-05-05 20:46 20.79951 -77.43941 37027 ft 488 kts 185°
2026-05-05 20:47 20.73146 -77.44150 37016 ft 488 kts 185°
2026-05-05 20:47 20.66355 -77.44364 37006 ft 488 kts 185°
2026-05-05 20:48 20.59580 -77.44564 37014 ft 488 kts 185°
2026-05-05 20:48 20.52767 -77.44761 37022 ft 488 kts 185°
2026-05-05 20:49 20.46014 -77.44931 37026 ft 488 kts 185°
2026-05-05 20:49 20.39218 -77.45098 37033 ft 488 kts 185°
2026-05-05 20:50 20.32417 -77.45273 37010 ft 488 kts 185°
2026-05-05 20:50 20.25655 -77.45443 37024 ft 487 kts 185°
2026-05-05 20:51 20.18903 -77.45618 37026 ft 487 kts 185°
2026-05-05 20:51 20.12148 -77.45794 37029 ft 487 kts 185°
2026-05-05 20:52 20.05360 -77.45971 37025 ft 487 kts 185°
2026-05-05 20:52 19.98610 -77.46137 37016 ft 487 kts 184°
2026-05-05 20:53 19.91825 -77.46303 37022 ft 486 kts 184°
2026-05-05 20:53 19.85099 -77.46472 37024 ft 485 kts 184°
2026-05-05 20:54 19.78342 -77.46647 37022 ft 485 kts 184°
2026-05-05 20:54 19.71563 -77.46823 37017 ft 485 kts 184°
2026-05-05 20:55 19.64849 -77.46992 37010 ft 486 kts 184°
2026-05-05 20:55 19.58076 -77.47159 37005 ft 486 kts 184°
2026-05-05 20:56 19.51359 -77.47254 36812 ft 484 kts 179°
2026-05-05 20:56 19.48002 -77.46818 36165 ft 488 kts 169°
2026-05-05 20:56 19.44753 -77.45837 35834 ft 483 kts 161°
2026-05-05 20:57 19.41589 -77.44658 35359 ft 481 kts 161°
2026-05-05 20:57 19.38426 -77.43499 34921 ft 478 kts 162°
2026-05-05 20:57 19.35278 -77.42357 34481 ft 476 kts 161°
2026-05-05 20:57 19.32190 -77.41242 34088 ft 473 kts 161°
2026-05-05 20:58 19.29084 -77.40121 33637 ft 470 kts 161°
2026-05-05 20:58 19.25994 -77.39001 33160 ft 467 kts 161°
2026-05-05 20:58 19.22929 -77.37885 32695 ft 463 kts 161°
2026-05-05 20:58 19.19916 -77.36784 32251 ft 460 kts 161°
2026-05-05 20:59 19.16899 -77.35678 31808 ft 458 kts 161°
2026-05-05 20:59 19.13893 -77.34579 31373 ft 455 kts 161°
2026-05-05 20:59 19.10914 -77.33491 30947 ft 452 kts 161°
2026-05-05 20:59 19.07942 -77.32411 30527 ft 449 kts 161°
2026-05-05 21:00 19.05026 -77.31350 30125 ft 447 kts 161°
2026-05-05 21:00 19.02084 -77.30282 29671 ft 444 kts 161°
2026-05-05 21:00 18.99163 -77.29223 29226 ft 440 kts 161°
2026-05-05 21:00 18.96281 -77.28172 28809 ft 437 kts 159°
2026-05-05 21:01 18.93501 -77.26876 28410 ft 433 kts 155°
2026-05-05 21:01 18.90815 -77.25553 28026 ft 430 kts 155°
2026-05-05 21:01 18.88132 -77.24228 27655 ft 426 kts 155°
2026-05-05 21:01 18.85443 -77.22901 27286 ft 423 kts 155°
2026-05-05 21:02 18.82772 -77.21586 26925 ft 419 kts 155°
2026-05-05 21:02 18.80166 -77.20303 26558 ft 416 kts 155°
2026-05-05 21:02 18.77545 -77.19012 26190 ft 413 kts 155°
2026-05-05 21:02 18.74951 -77.17733 25813 ft 410 kts 155°
2026-05-05 21:03 18.72365 -77.16460 25429 ft 407 kts 155°
2026-05-05 21:03 18.69804 -77.15201 25063 ft 404 kts 155°
2026-05-05 21:03 18.67286 -77.13968 24718 ft 401 kts 155°
2026-05-05 21:03 18.64767 -77.12739 24379 ft 397 kts 155°
2026-05-05 21:04 18.62266 -77.11517 24013 ft 394 kts 155°
2026-05-05 21:04 18.59780 -77.10302 23627 ft 392 kts 156°
2026-05-05 21:04 18.57339 -77.09109 23206 ft 389 kts 156°
2026-05-05 21:04 18.54888 -77.07909 22798 ft 385 kts 155°
2026-05-05 21:05 18.52457 -77.06717 22230 ft 387 kts 155°
2026-05-05 21:05 18.49987 -77.05505 21552 ft 391 kts 155°
2026-05-05 21:05 18.47470 -77.04456 20859 ft 396 kts 167°
2026-05-05 21:05 18.44725 -77.04150 20143 ft 397 kts 182°
2026-05-05 21:06 18.41957 -77.04172 19433 ft 394 kts 181°
2026-05-05 21:06 18.39240 -77.04207 18744 ft 385 kts 182°
2026-05-05 21:06 18.36590 -77.04250 18010 ft 377 kts 182°
2026-05-05 21:06 18.33996 -77.04295 17229 ft 369 kts 183°
2026-05-05 21:07 18.31455 -77.04338 16461 ft 361 kts 182°
2026-05-05 21:07 18.28996 -77.04378 15725 ft 355 kts 181°
2026-05-05 21:07 18.26550 -77.04414 14959 ft 349 kts 182°
2026-05-05 21:07 18.24145 -77.04448 14201 ft 345 kts 181°
2026-05-05 21:08 18.21757 -77.04486 13422 ft 340 kts 184°
2026-05-05 21:08 18.19471 -77.04972 12594 ft 334 kts 203°
2026-05-05 21:08 18.17373 -77.05992 11792 ft 330 kts 206°
2026-05-05 21:08 18.15325 -77.07066 11008 ft 328 kts 207°
2026-05-05 21:09 18.13302 -77.08145 10239 ft 324 kts 206°
2026-05-05 21:09 18.11303 -77.09230 9446 ft 322 kts 207°
2026-05-05 21:09 18.09348 -77.10301 8643 ft 324 kts 207°
2026-05-05 21:09 18.07305 -77.11419 7830 ft 336 kts 206°
2026-05-05 21:10 18.05224 -77.12627 7041 ft 347 kts 214°
2026-05-05 21:10 18.03547 -77.14410 6384 ft 339 kts 239°
2026-05-05 21:10 18.02716 -77.16614 6129 ft 314 kts 257°
2026-05-05 21:10 18.02494 -77.18810 5883 ft 294 kts 279°
2026-05-05 21:11 18.03014 -77.20856 5639 ft 288 kts 299°
2026-05-05 21:11 18.04205 -77.22496 5398 ft 280 kts 326°
2026-05-05 21:11 18.05913 -77.23368 5155 ft 272 kts 349°
2026-05-05 21:11 18.07778 -77.23394 4922 ft 268 kts 17°
2026-05-05 21:12 18.09400 -77.22546 4681 ft 257 kts 45°
2026-05-05 21:12 18.10415 -77.21054 4509 ft 256 kts 68°
2026-05-05 21:12 18.10737 -77.19216 4331 ft 255 kts 93°
2026-05-05 21:12 18.10286 -77.17428 4178 ft 253 kts 113°
2026-05-05 21:13 18.09528 -77.15741 4011 ft 253 kts 115°
2026-05-05 21:13 18.08783 -77.14088 3843 ft 248 kts 114°
2026-05-05 21:13 18.08074 -77.12455 3738 ft 243 kts 114°
2026-05-05 21:13 18.07378 -77.10842 3718 ft 240 kts 114°
2026-05-05 21:14 18.06698 -77.09269 3723 ft 233 kts 114°
2026-05-05 21:14 18.06032 -77.07729 3711 ft 233 kts 114°
2026-05-05 21:14 18.05362 -77.06183 3708 ft 230 kts 114°
2026-05-05 21:14 18.04705 -77.04665 3705 ft 227 kts 114°
2026-05-05 21:15 18.04016 -77.03149 3716 ft 231 kts 118°
2026-05-05 21:15 18.03217 -77.01751 3694 ft 220 kts 121°
2026-05-05 21:15 18.02397 -77.00428 3543 ft 214 kts 122°
2026-05-05 21:15 18.01642 -76.99115 3403 ft 207 kts 118°
2026-05-05 21:16 18.00979 -76.97791 3237 ft 202 kts 116°
2026-05-05 21:16 18.00366 -76.96487 3053 ft 197 kts 115°
2026-05-05 21:16 17.99794 -76.95181 2820 ft 194 kts 114°
2026-05-05 21:16 17.99273 -76.93888 2642 ft 189 kts 113°
2026-05-05 21:17 17.98784 -76.92643 2413 ft 179 kts 112°
2026-05-05 21:17 17.98353 -76.91452 2123 ft 171 kts 110°
2026-05-05 21:17 17.97965 -76.90325 1973 ft 155 kts 111°
2026-05-05 21:17 17.97637 -76.89342 1873 ft 138 kts 111°
2026-05-05 21:18 17.97322 -76.88405 1721 ft 133 kts 109°
2026-05-05 21:18 17.96987 -76.87524 1509 ft 131 kts 111°
2026-05-05 21:18 17.96637 -76.86647 1289 ft 129 kts 112°
2026-05-05 21:18 17.96284 -76.85759 1101 ft 131 kts 109°
2026-05-05 21:19 17.95946 -76.84877 1004 ft 131 kts 109°
2026-05-05 21:19 17.95616 -76.83994 875 ft 129 kts 110°
2026-05-05 21:19 17.95264 -76.83128 699 ft 129 kts 112°
2026-05-05 21:19 17.94930 -76.82249 520 ft 129 kts 112°
2026-05-05 21:20 17.94599 -76.81379 362 ft 128 kts 112°
2026-05-05 21:20 17.94253 -76.80511 194 ft 130 kts 113°
2026-05-05 21:20 17.93907 -76.79633 28 ft 128 kts 114°
2026-05-05 21:20 17.93617 -76.78888 13 ft 84 kts 112°
2026-05-05 21:21 17.93494 -76.78571 13 ft 35 kts 113°
2026-05-05 21:21 17.93413 -76.78337 17 ft 32 kts 104°
2026-05-05 21:21 17.93407 -76.78153 15 ft 12 kts 79°
2026-05-05 21:21 17.93453 -76.78124 14 ft 6 kts
2026-05-05 21:22 17.93455 -76.78125 14 ft 0 kts 358°
2026-05-05 21:22 17.93458 -76.78125 14 ft 2 kts 355°
2026-05-05 21:22 17.93485 -76.78137 14 ft 6 kts 324°
2026-05-05 21:23 17.93535 -76.78160 16 ft 10 kts
2026-05-05 21:23 17.93610 -76.78130 14 ft 13 kts 22°
2026-05-05 21:23 17.93684 -76.78072 14 ft 12 kts 106°
2026-05-05 21:23 17.93668 -76.78039 14 ft 2 kts 113°
2026-05-05 21:24 17.93666 -76.78033 14 ft 0 kts 112°